Showing default

OPTUS D2, 32252

Orbit data source: Space-Track

OPTUS D2, 32252 is a payload satellite owned by SingTel Optus (AU) in GEO that was launched on Fri, 05 Oct 2007 UTC via an ARIANE 5GS launch vehicle from the French Guiana (FRGUI). Payload-class satellites include a variety of spacecraft equipped with specific instruments for various scientific and technological missions. These include communications satellites like Starlink; space stations such as the ISS; scientific satellites like the Hubble; Earth observation satellites from companies like Planet Labs, Umbra, and HawkEye 360; GPS; miniature CubeSats for education and research; and military/defense satellites.

Not visible in the next 10 days
Identifier
32252, 2007-044A
Orbit
GEO
Last TLE update
10 hours ago
Origin
Manufacturer
OSC
Mission
Operational Commercial Communications
Bus & Motor
OSC STAR 2.4, BT-4
Mass
2,350 kg wet, 1,079 kg dry
Launch date (UTC)
2007-10-05 (18 years ago)
Launch vehicle
ARIANE 5GS
Launch site
French Guiana (FRGUI)
Object type
Payload
Rocket body
Debris
Shape & HBR
Box + 2 Pan, 22.4 m
Radar Cross Section
24.712 m², Large (>1 m²)

Expand to show TLE details & history

TLE from 10 hours ago
0 OPTUS D2
1 32252U 07044A   25128.84254895 -.00000103  00000-0  00000-0 0  9997
2 32252   1.0284  87.1467 0003946 299.5648 303.6991  1.00273144 64518
Epoch: 2025-05-08T20:13Z
Definitive object data (Epoch: 2025-05-08T20:13:16.229Z)
Latitude
-0.89858°
Longitude
160.14216°
Altitude
35,776.599 km
Speed
3.075 km/s
True Right ascension
22h 01m 28s
True Declination
0° 53' 52"
Sunlit
Object was in daylight at TLE epoch
Visualization TLE readout
Latitude
0.60758°
Longitude
-45.983°
Altitude
35,787.768 km
Speed
3.075 km/s
Apparent Right ascension
07h 50m 47s
Apparent Declination
-4° 50' 08"
Sunlit
Object is in daylight
Visualization observer readout
Local Sidereal Time
14:35:35
Azimuth
273.486° WNW
Elevation
-11.686°
Doppler factor
1
Orbital elements
Apogee altitude
35,803.922 km
Perigee altitude
35,770.645 km
Semi-major axis
42,165.421 km
Eccentricity
0.0003946
Inclination
1.0284°
RAAN
87.1467°
Arg. of periapsis
299.5648°
True anomaly
303.66147°
Mean anomaly
303.6991°
Eccentric anomaly
303.68029°
Mean motion
0.25067 °/min
BSTAR
Unknown
Orbital period
1436.13 mins
Loading historical data...
32252 neighbors
Loading maneuver chart data...
Loading SW <> Apogee altitude chart data...
Loading historical data...
Loading historical data...
Loading historical data...
Loading historical data...
Loading historical data...
Loading historical data...
Loading historical data...
Other satellites on launch #44 in the year 2007 (2007-10-05 UTC)

OPTUS D2 Visibility forecast

Observer location: undefined°, undefined°

OPTUS D2 is not visible in the next 10 days
Span
Click to sort rows by Start time (UTC) header in descending order
Start Az.
Max El. time (UTC)
Max El. Az.
Max El.
End time (UTC)
End Az.
|